NWK1676 YPPH-YSOL

Flight info

Callsign NWK1676
Flight time 1h 26m
Altitude 37000
Route PH DCT AVNEX Y15 ESDEG Y44 PEXOR
Aircraft A320/M-SDE3FGHIRWY/LB1

Departure

Time 2026-04-12 04:35
Airport Perth International Airport (YPPH)

Arrival

Time 2026-04-12 06:01
Airport Solomon Airport (YSOL)
Time Latitude Longitude Altitude Speed Heading
2026-04-12 04:04 -31.93935 115.95730 53 ft 0 kts 329°
2026-04-12 04:08 -31.93935 115.95731 55 ft 0 kts 329°
2026-04-12 04:27 -31.93944 115.95737 48 ft 3 kts 338°
2026-04-12 04:27 -31.93963 115.95743 53 ft 3 kts 358°
2026-04-12 04:28 -31.93983 115.95743 52 ft 2 kts 357°
2026-04-12 04:28 -31.93991 115.95744 54 ft 1 kts 355°
2026-04-12 04:28 -31.93990 115.95744 54 ft 0 kts
2026-04-12 04:29 -31.93987 115.95752 53 ft 3 kts 57°
2026-04-12 04:29 -31.93958 115.95817 53 ft 13 kts 87°
2026-04-12 04:29 -31.94033 115.95890 51 ft 18 kts 148°
2026-04-12 04:30 -31.94164 115.95983 51 ft 25 kts 149°
2026-04-12 04:30 -31.94316 115.96088 54 ft 26 kts 149°
2026-04-12 04:30 -31.94487 115.96131 53 ft 27 kts 191°
2026-04-12 04:30 -31.94671 115.96077 58 ft 27 kts 195°
2026-04-12 04:31 -31.94860 115.96023 57 ft 29 kts 190°
2026-04-12 04:31 -31.95064 115.95968 56 ft 31 kts 193°
2026-04-12 04:31 -31.95280 115.95903 55 ft 33 kts 194°
2026-04-12 04:31 -31.95508 115.95834 54 ft 32 kts 194°
2026-04-12 04:32 -31.95724 115.95769 56 ft 28 kts 194°
2026-04-12 04:32 -31.95837 115.95850 56 ft 0 kts 104°
2026-04-12 04:32 -31.95837 115.95849 56 ft 0 kts 104°
2026-04-12 04:33 -31.95840 115.95864 54 ft 6 kts 102°
2026-04-12 04:33 -31.95831 115.95954 52 ft 16 kts 58°
2026-04-12 04:33 -31.95707 115.96019 55 ft 12 kts 14°
2026-04-12 04:33 -31.95702 115.96021 55 ft 4 kts 14°
2026-04-12 04:34 -31.95437 115.96094 54 ft 72 kts 12°
2026-04-12 04:34 -31.94760 115.96289 55 ft 125 kts 13°
2026-04-12 04:34 -31.93787 115.96569 60 ft 162 kts 14°
2026-04-12 04:34 -31.92613 115.96896 266 ft 179 kts 12°
2026-04-12 04:35 -31.91378 115.97245 696 ft 187 kts 12°
2026-04-12 04:35 -31.90100 115.97585 1213 ft 193 kts
2026-04-12 04:35 -31.88761 115.97806 1824 ft 196 kts
2026-04-12 04:35 -31.87414 115.97880 2510 ft 192 kts 356°
2026-04-12 04:36 -31.86115 115.97569 3225 ft 191 kts 339°
2026-04-12 04:36 -31.84943 115.96838 3928 ft 191 kts 324°
2026-04-12 04:36 -31.83997 115.95746 4615 ft 191 kts 303°
2026-04-12 04:36 -31.83778 115.94266 5371 ft 188 kts 256°
2026-04-12 04:37 -31.84212 115.92801 5881 ft 198 kts 252°
2026-04-12 04:37 -31.84649 115.91198 6125 ft 219 kts 263°
2026-04-12 04:37 -31.84466 115.89360 6383 ft 240 kts 297°
2026-04-12 04:37 -31.83303 115.87876 6757 ft 263 kts 332°
2026-04-12 04:38 -31.81497 115.87357 7389 ft 274 kts 354°
2026-04-12 04:38 -31.79575 115.87251 8223 ft 279 kts 358°
2026-04-12 04:38 -31.77623 115.87255 9091 ft 282 kts 359°
2026-04-12 04:38 -31.75646 115.87288 9940 ft 286 kts 359°
2026-04-12 04:39 -31.73613 115.87316 10442 ft 303 kts 359°
2026-04-12 04:39 -31.71464 115.87326 10773 ft 321 kts 358°
2026-04-12 04:39 -31.69204 115.87320 11393 ft 328 kts 358°
2026-04-12 04:39 -31.66913 115.87302 12141 ft 331 kts 358°
2026-04-12 04:40 -31.64602 115.87273 12912 ft 334 kts 358°
2026-04-12 04:40 -31.62273 115.87239 13668 ft 336 kts 357°
2026-04-12 04:40 -31.59924 115.87202 14350 ft 339 kts 357°
2026-04-12 04:40 -31.57550 115.87162 14965 ft 343 kts 358°
2026-04-12 04:41 -31.55146 115.87122 15547 ft 348 kts 358°
2026-04-12 04:41 -31.52741 115.87084 16123 ft 353 kts 358°
2026-04-12 04:41 -31.50269 115.87050 16707 ft 357 kts 358°
2026-04-12 04:41 -31.47768 115.87017 17297 ft 362 kts 358°
2026-04-12 04:42 -31.45233 115.86979 17877 ft 367 kts 358°
2026-04-12 04:42 -31.42663 115.86939 18465 ft 371 kts 358°
2026-04-12 04:42 -31.40066 115.86899 18995 ft 375 kts 358°
2026-04-12 04:43 -31.34787 115.86821 20074 ft 383 kts 358°
2026-04-12 04:43 -31.32142 115.86785 20608 ft 387 kts 358°
2026-04-12 04:43 -31.29433 115.86745 21138 ft 391 kts 358°
2026-04-12 04:43 -31.26694 115.86704 21657 ft 395 kts 358°
2026-04-12 04:44 -31.23930 115.86663 22178 ft 399 kts 358°
2026-04-12 04:44 -31.21141 115.86621 22691 ft 403 kts 358°
2026-04-12 04:44 -31.18322 115.86577 23220 ft 407 kts 358°
2026-04-12 04:44 -31.15478 115.86535 23713 ft 411 kts 358°
2026-04-12 04:45 -31.12643 115.86495 24143 ft 414 kts 358°
2026-04-12 04:45 -31.09756 115.86456 24579 ft 417 kts 358°
2026-04-12 04:45 -31.06844 115.86419 25012 ft 420 kts 358°
2026-04-12 04:45 -31.03911 115.86381 25438 ft 422 kts 358°
2026-04-12 04:46 -31.00965 115.86340 25863 ft 425 kts 358°
2026-04-12 04:46 -30.98000 115.86295 26280 ft 428 kts 358°
2026-04-12 04:46 -30.95016 115.86248 26681 ft 430 kts 358°
2026-04-12 04:46 -30.92008 115.86199 27076 ft 433 kts 358°
2026-04-12 04:47 -30.89024 115.86152 27460 ft 436 kts 358°
2026-04-12 04:47 -30.85986 115.86106 27843 ft 438 kts 358°
2026-04-12 04:47 -30.82927 115.86062 28227 ft 441 kts 358°
2026-04-12 04:47 -30.79846 115.86175 28604 ft 445 kts
2026-04-12 04:48 -30.76756 115.86496 28982 ft 447 kts
2026-04-12 04:48 -30.73646 115.86825 29357 ft 450 kts
2026-04-12 04:48 -30.70522 115.87154 29732 ft 453 kts
2026-04-12 04:48 -30.67374 115.87483 30100 ft 455 kts
2026-04-12 04:49 -30.64208 115.87809 30415 ft 458 kts
2026-04-12 04:49 -30.61071 115.88131 30726 ft 460 kts
2026-04-12 04:49 -30.57876 115.88457 31040 ft 462 kts
2026-04-12 04:49 -30.54670 115.88783 31345 ft 464 kts
2026-04-12 04:50 -30.51453 115.89112 31718 ft 464 kts
2026-04-12 04:50 -30.48239 115.89443 32163 ft 463 kts
2026-04-12 04:50 -30.45037 115.89773 32611 ft 461 kts
2026-04-12 04:50 -30.41844 115.90099 33043 ft 460 kts
2026-04-12 04:51 -30.38657 115.90426 33481 ft 460 kts
2026-04-12 04:51 -30.35476 115.90754 33930 ft 459 kts
2026-04-12 04:51 -30.32342 115.91078 34323 ft 458 kts
2026-04-12 04:51 -30.29175 115.91402 34689 ft 457 kts
2026-04-12 04:52 -30.26013 115.91724 35041 ft 456 kts
2026-04-12 04:52 -30.22858 115.92043 35382 ft 455 kts
2026-04-12 04:52 -30.19710 115.92360 35719 ft 454 kts
2026-04-12 04:52 -30.16563 115.92681 36022 ft 454 kts
2026-04-12 04:53 -30.13419 115.93004 36328 ft 453 kts
2026-04-12 04:53 -30.10279 115.93327 36635 ft 453 kts
2026-04-12 04:53 -30.04037 115.93967 37034 ft 457 kts
2026-04-12 04:54 -30.00846 115.94285 37048 ft 463 kts
2026-04-12 04:54 -29.94341 115.94940 37048 ft 474 kts
2026-04-12 04:55 -29.87711 115.95608 37049 ft 482 kts
2026-04-12 04:55 -29.80984 115.96294 37051 ft 488 kts
2026-04-12 04:56 -29.74223 115.96989 37047 ft 493 kts
2026-04-12 04:56 -29.67505 115.97675 37043 ft 480 kts
2026-04-12 04:57 -29.60866 115.98349 37048 ft 479 kts
2026-04-12 04:57 -29.54232 115.99016 37041 ft 478 kts
2026-04-12 04:58 -29.47649 115.99671 37045 ft 478 kts
2026-04-12 04:58 -29.41015 116.00335 37038 ft 478 kts
2026-04-12 04:59 -29.34386 116.01013 37029 ft 479 kts
2026-04-12 04:59 -29.27745 116.01681 37044 ft 479 kts
2026-04-12 05:00 -29.21151 116.02380 37050 ft 481 kts
2026-04-12 05:00 -29.14590 116.04124 37056 ft 485 kts 10°
2026-04-12 05:01 -29.08042 116.05988 37051 ft 485 kts 10°
2026-04-12 05:01 -29.01492 116.07848 37055 ft 485 kts 10°
2026-04-12 05:02 -28.94941 116.09696 37057 ft 485 kts
2026-04-12 05:02 -28.88432 116.11528 37054 ft 485 kts 10°
2026-04-12 05:03 -28.81883 116.13373 37035 ft 485 kts 10°
2026-04-12 05:03 -28.75326 116.15215 37042 ft 485 kts 10°
2026-04-12 05:04 -28.68771 116.17059 37039 ft 485 kts 10°
2026-04-12 05:04 -28.62255 116.18886 37047 ft 486 kts
2026-04-12 05:05 -28.55689 116.20725 37043 ft 486 kts
2026-04-12 05:05 -28.49121 116.22559 37052 ft 486 kts
2026-04-12 05:06 -28.42548 116.24396 37052 ft 486 kts
2026-04-12 05:06 -28.35983 116.26229 37050 ft 486 kts 10°
2026-04-12 05:07 -28.29458 116.28048 37041 ft 486 kts 10°
2026-04-12 05:07 -28.22893 116.29875 37058 ft 486 kts
2026-04-12 05:08 -28.16334 116.31694 37059 ft 485 kts
2026-04-12 05:08 -28.09782 116.33515 37058 ft 485 kts
2026-04-12 05:09 -28.03283 116.35315 37058 ft 484 kts
2026-04-12 05:09 -27.96736 116.37130 37058 ft 484 kts
2026-04-12 05:10 -27.90190 116.38935 37057 ft 484 kts
2026-04-12 05:10 -27.83645 116.40738 37056 ft 484 kts
2026-04-12 05:11 -27.77096 116.42550 37055 ft 484 kts
2026-04-12 05:11 -27.70594 116.44348 37039 ft 484 kts
2026-04-12 05:12 -27.64044 116.46159 37047 ft 484 kts
2026-04-12 05:12 -27.57492 116.47954 37048 ft 485 kts
2026-04-12 05:13 -27.50944 116.49750 37049 ft 485 kts
2026-04-12 05:13 -27.44439 116.51538 37049 ft 484 kts
2026-04-12 05:14 -27.37888 116.53335 37041 ft 484 kts 10°
2026-04-12 05:14 -27.31342 116.55124 37044 ft 484 kts
2026-04-12 05:15 -27.24787 116.56904 37043 ft 484 kts 10°
2026-04-12 05:15 -27.18281 116.58686 37043 ft 485 kts 10°
2026-04-12 05:16 -27.11729 116.60475 37025 ft 484 kts 10°
2026-04-12 05:16 -27.05168 116.62251 37029 ft 484 kts 10°
2026-04-12 05:17 -26.98602 116.64031 37035 ft 485 kts 10°
2026-04-12 05:17 -26.92049 116.65817 37037 ft 485 kts 10°
2026-04-12 05:18 -26.85487 116.67601 37024 ft 485 kts 10°
2026-04-12 05:18 -26.80040 116.69083 37029 ft 485 kts 10°
2026-04-12 05:19 -26.72403 116.71147 37031 ft 485 kts 10°
2026-04-12 05:19 -26.65827 116.72928 37031 ft 486 kts 10°
2026-04-12 05:20 -26.60357 116.74403 37034 ft 486 kts 10°
2026-04-12 05:20 -26.53770 116.76175 37022 ft 486 kts 11°
2026-04-12 05:21 -26.47174 116.77944 37028 ft 487 kts 11°
2026-04-12 05:21 -26.40626 116.79711 37031 ft 487 kts 11°
2026-04-12 05:22 -26.34020 116.81488 37033 ft 487 kts 11°
2026-04-12 05:22 -26.27457 116.83245 37020 ft 487 kts 11°
2026-04-12 05:23 -26.20856 116.85015 37018 ft 487 kts 11°
2026-04-12 05:23 -26.14283 116.86777 37023 ft 487 kts 11°
2026-04-12 05:24 -26.07669 116.88546 37022 ft 487 kts 11°
2026-04-12 05:24 -26.01076 116.90311 37024 ft 487 kts 11°
2026-04-12 05:25 -25.94510 116.92061 37015 ft 487 kts 11°
2026-04-12 05:25 -25.87913 116.93818 37020 ft 487 kts 11°
2026-04-12 05:26 -25.81315 116.95578 37019 ft 487 kts 11°
2026-04-12 05:26 -25.74747 116.97331 37017 ft 487 kts 11°
2026-04-12 05:27 -25.68152 116.99076 37009 ft 487 kts 11°
2026-04-12 05:27 -25.61557 117.00822 37014 ft 487 kts 11°
2026-04-12 05:28 -25.54999 117.02561 37017 ft 486 kts 11°
2026-04-12 05:28 -25.48405 117.04309 37019 ft 486 kts 11°
2026-04-12 05:29 -25.41845 117.06040 37018 ft 486 kts 11°
2026-04-12 05:29 -25.35255 117.07781 37005 ft 486 kts 11°
2026-04-12 05:30 -25.28669 117.09526 37008 ft 486 kts 11°
2026-04-12 05:30 -25.22074 117.11270 37012 ft 486 kts 11°
2026-04-12 05:31 -25.15533 117.12990 37011 ft 486 kts 11°
2026-04-12 05:31 -25.08935 117.14719 37009 ft 486 kts 11°
2026-04-12 05:32 -25.02344 117.16447 37007 ft 486 kts 11°
2026-04-12 05:32 -24.95753 117.18176 37008 ft 486 kts 11°
2026-04-12 05:33 -24.89202 117.19892 37007 ft 486 kts 11°
2026-04-12 05:33 -24.82605 117.21622 37006 ft 486 kts 11°
2026-04-12 05:34 -24.76042 117.23338 36997 ft 486 kts 11°
2026-04-12 05:34 -24.69451 117.25065 37001 ft 487 kts 11°
2026-04-12 05:35 -24.62841 117.26789 37005 ft 487 kts 11°
2026-04-12 05:35 -24.56242 117.28503 37001 ft 487 kts 11°
2026-04-12 05:36 -24.49689 117.30205 36995 ft 487 kts 11°
2026-04-12 05:36 -24.43091 117.31992 37002 ft 488 kts 13°
2026-04-12 05:37 -24.36580 117.34178 37007 ft 489 kts 16°
2026-04-12 05:37 -24.30144 117.36536 37004 ft 489 kts 16°
2026-04-12 05:38 -24.23663 117.38829 37002 ft 489 kts 15°
2026-04-12 05:38 -24.17158 117.41040 36992 ft 489 kts 14°
2026-04-12 05:39 -24.10644 117.43237 36991 ft 489 kts 14°
2026-04-12 05:39 -24.04146 117.45447 36990 ft 489 kts 15°
2026-04-12 05:40 -23.97645 117.47665 36989 ft 489 kts 15°
2026-04-12 05:40 -23.91183 117.49865 36976 ft 489 kts 15°
2026-04-12 05:41 -23.84668 117.52091 36974 ft 490 kts 15°
2026-04-12 05:41 -23.78148 117.54303 36974 ft 490 kts 14°
2026-04-12 05:42 -23.71676 117.56488 36970 ft 490 kts 14°
2026-04-12 05:42 -23.65163 117.58703 36971 ft 490 kts 15°
2026-04-12 05:43 -23.55378 117.62023 36965 ft 490 kts 14°
2026-04-12 05:43 -23.48894 117.64216 36968 ft 490 kts 14°
2026-04-12 05:44 -23.42371 117.66413 36966 ft 490 kts 14°
2026-04-12 05:44 -23.35854 117.68609 36968 ft 490 kts 14°
2026-04-12 05:45 -23.32597 117.69709 36703 ft 490 kts 14°
2026-04-12 05:45 -23.29336 117.70810 35478 ft 490 kts 14°
2026-04-12 05:45 -23.26078 117.71909 34283 ft 491 kts 14°
2026-04-12 05:45 -23.22810 117.73010 32983 ft 493 kts 14°
2026-04-12 05:46 -23.19529 117.74116 31683 ft 494 kts 14°
2026-04-12 05:46 -23.16243 117.75222 30435 ft 495 kts 14°
2026-04-12 05:46 -23.12997 117.76315 29107 ft 495 kts 14°
2026-04-12 05:46 -23.09697 117.77421 27740 ft 499 kts 14°
2026-04-12 05:47 -23.06369 117.78535 26426 ft 503 kts 14°
2026-04-12 05:47 -23.03010 117.79662 25158 ft 507 kts 14°
2026-04-12 05:47 -22.99624 117.80799 23930 ft 512 kts 14°
2026-04-12 05:47 -22.96229 117.81937 22564 ft 506 kts 14°
2026-04-12 05:48 -22.92916 117.83059 20795 ft 491 kts 15°
2026-04-12 05:48 -22.89774 117.84132 19773 ft 458 kts 15°
2026-04-12 05:48 -22.86834 117.85122 19350 ft 427 kts 15°
2026-04-12 05:48 -22.84120 117.86025 18971 ft 403 kts 15°
2026-04-12 05:49 -22.81486 117.86896 18265 ft 391 kts 15°
2026-04-12 05:49 -22.78916 117.87744 17327 ft 382 kts 15°
2026-04-12 05:49 -22.76396 117.88580 16362 ft 375 kts 15°
2026-04-12 05:49 -22.73919 117.89403 15427 ft 369 kts 15°
2026-04-12 05:50 -22.71496 117.90210 14879 ft 357 kts 15°
2026-04-12 05:50 -22.69210 117.90977 14706 ft 331 kts 15°
2026-04-12 05:50 -22.67070 117.91697 14372 ft 316 kts 14°
2026-04-12 05:50 -22.64995 117.92393 13841 ft 309 kts 15°
2026-04-12 05:51 -22.62980 117.93065 13305 ft 306 kts 14°
2026-04-12 05:51 -22.60943 117.93742 12914 ft 306 kts 15°
2026-04-12 05:51 -22.58908 117.94417 12534 ft 306 kts 14°
2026-04-12 05:51 -22.56876 117.95092 12158 ft 305 kts 15°
2026-04-12 05:52 -22.54851 117.95764 11780 ft 304 kts 14°
2026-04-12 05:52 -22.52833 117.96436 11402 ft 303 kts 15°
2026-04-12 05:52 -22.50823 117.97105 11027 ft 302 kts 15°
2026-04-12 05:52 -22.48820 117.97772 10651 ft 300 kts 15°
2026-04-12 05:53 -22.46890 117.98413 10407 ft 285 kts 15°
2026-04-12 05:53 -22.45062 117.99025 10287 ft 265 kts 15°
2026-04-12 05:53 -22.43361 117.99595 10165 ft 248 kts 15°
2026-04-12 05:53 -22.41745 118.00134 9848 ft 240 kts 15°
2026-04-12 05:54 -22.40133 118.00667 9226 ft 245 kts 15°
2026-04-12 05:54 -22.38519 118.01201 8808 ft 239 kts 16°
2026-04-12 05:54 -22.36960 118.01718 8519 ft 229 kts 16°
2026-04-12 05:54 -22.35477 118.02211 8211 ft 218 kts 16°
2026-04-12 05:55 -22.34060 118.02680 7924 ft 214 kts 17°
2026-04-12 05:55 -22.32638 118.03150 7657 ft 213 kts 17°
2026-04-12 05:55 -22.31234 118.03615 7385 ft 207 kts 17°
2026-04-12 05:55 -22.29930 118.04047 7148 ft 185 kts 17°
2026-04-12 05:56 -22.28734 118.04443 6910 ft 176 kts 18°
2026-04-12 05:56 -22.27573 118.04829 6692 ft 173 kts 18°
2026-04-12 05:56 -22.26425 118.05209 6467 ft 173 kts 17°
2026-04-12 05:56 -22.25234 118.05320 6233 ft 173 kts 355°
2026-04-12 05:57 -22.24109 118.04920 6020 ft 174 kts 334°
2026-04-12 05:57 -22.23185 118.04059 5786 ft 179 kts 311°
2026-04-12 05:57 -22.22646 118.02839 5453 ft 185 kts 287°
2026-04-12 05:57 -22.22627 118.01447 5132 ft 188 kts 261°
2026-04-12 05:58 -22.22970 118.00097 4815 ft 185 kts 255°
2026-04-12 05:58 -22.23317 117.98754 4476 ft 186 kts 256°
2026-04-12 05:58 -22.23852 117.97476 4188 ft 189 kts 233°
2026-04-12 05:58 -22.24822 117.96553 3976 ft 183 kts 207°
2026-04-12 05:59 -22.25947 117.95868 3948 ft 187 kts 221°
2026-04-12 05:59 -22.26426 117.94641 3761 ft 181 kts 276°
2026-04-12 05:59 -22.26204 117.93312 3395 ft 182 kts 286°
2026-04-12 05:59 -22.25976 117.91975 3265 ft 183 kts 282°
2026-04-12 06:00 -22.25807 117.90634 3014 ft 180 kts 281°
2026-04-12 06:00 -22.25666 117.89288 2770 ft 183 kts 275°
2026-04-12 06:00 -22.25670 117.87930 2401 ft 180 kts 274°
2026-04-12 06:00 -22.25671 117.86595 2187 ft 178 kts 274°
2026-04-12 06:01 -22.25671 117.85302 2029 ft 156 kts 273°
2026-04-12 06:01 -22.25668 117.84441 2018 ft 71 kts 269°
2026-04-12 06:01 -22.25679 117.84141 2017 ft 21 kts 239°
2026-04-12 06:01 -22.25681 117.84073 2016 ft 6 kts
2026-04-12 06:02 -22.25674 117.84105 2016 ft 7 kts 91°
2026-04-12 06:02 -22.25674 117.84189 2012 ft 15 kts 89°
2026-04-12 06:02 -22.25671 117.84325 2013 ft 21 kts 88°
2026-04-12 06:02 -22.25662 117.84509 2018 ft 28 kts 86°
2026-04-12 06:03 -22.25666 117.84731 2020 ft 30 kts 91°
2026-04-12 06:03 -22.25650 117.84907 2027 ft 14 kts 51°
2026-04-12 06:03 -22.25553 117.84920 2026 ft 15 kts
2026-04-12 06:03 -22.25451 117.84916 2025 ft 11 kts 344°
2026-04-12 06:04 -22.25414 117.84881 2023 ft 1 kts 312°
2026-04-12 06:04 -22.25411 117.84878 2023 ft 0 kts 313°